WP3OF-2 Weather Reports


time (UTC)temp
C
wind
direction
speed
KPH
gust
KPH
rain 1hr
cm
rain 24hr
cm
rain mn
cm
humidity
%
barometer
mb
20260507205031 20 149 6.4 12.9 0.00 4.11 4.11 99 1024.9
20260507204527 20 162 6.4 12.9 0.00 4.11 4.11 99 1024.9
20260507204025 20 213 6.4 14.5 0.00 4.11 4.11 99 1024.9
20260507203523 20 183 8.0 16.1 0.00 4.11 4.11 99 1024.9
20260507203020 20 196 9.7 16.1 0.00 4.11 4.11 99 1024.9
20260507202515 20 226 8.0 14.5 0.00 4.11 4.11 99 1024.9
20260507202012 20 196 12.9 16.1 0.00 4.11 4.11 99 1024.9
20260507201508 20 218 6.4 11.3 0.00 4.11 4.11 99 1024.9
20260507201004 20 161 4.8 14.5 0.00 4.11 4.11 99 1024.9
20260507200459 20 146 9.7 14.5 0.00 4.11 4.11 99 1025.2
20260507195955 20 188 9.7 12.9 0.00 4.11 4.11 99 1024.9
20260507195453 19 208 14.5 16.1 0.00 4.11 4.11 99 1024.9
20260507194950 18 225 11.3 22.5 0.00 4.11 4.11 99 1024.9
20260507194447 17 216 17.7 27.4 0.00 4.11 4.11 99 1025.6
20260507193942 20 250 12.9 20.9 0.00 4.11 4.11 99 1025.6
20260507193440 20 213 11.3 17.7 0.00 4.11 4.11 99 1025.2
20260507192937 20 201 16.1 20.9 0.00 4.11 4.11 99 1025.2
20260507192433 20 161 14.5 22.5 0.18 4.11 4.11 99 1025.6
20260507191930 20 219 19.3 24.1 0.48 4.11 4.11 99 1025.2
20260507191426 20 158 12.9 16.1 0.89 4.09 4.09 99 1025.2
20260507190922 19 183 14.5 22.5 1.09 4.04 4.04 99 1024.9
20260507190420 18 198 17.7 27.4 1.50 3.94 3.94 99 1025.6
20260507185919 17 209 24.1 30.6 2.39 3.84 3.84 99 1025.6
20260507185416 18 206 17.7 25.7 1.80 3.63 3.63 99 1025.2
20260507184913 18 146 6.4 22.5 0.79 3.40 3.40 99 1024.9
20260507184410 19 154 9.7 16.1 0.89 3.30 3.30 99 1025.2
20260507183908 20 180 9.7 17.7 3.05 3.25 3.25 99 1025.2
20260507183405 20 193 17.7 20.9 6.43 3.10 3.10 99 1025.6
20260507182902 20 207 16.1 20.9 6.53 2.72 2.72 99 1025.6
20260507182357 21 166 16.1 22.5 3.48 2.01 2.01 99 1025.6
20260507181855 21 73 16.1 17.7 2.69 1.45 1.45 99 1025.6
20260507181350 21 135 0.0 0.0 5.46 1.27 1.27 96 1025.6
20260507180848 21 295 12.9 16.1 4.37 0.84 0.84 99 1026.0
20260507180344 22 37 8.0 12.9 1.27 0.28 0.28 99 1026.3
20260507175839 22 100 3.2 4.8 0.00 0.03 0.03 99 1026.0
20260507175337 22 39 8.0 11.3 0.00 0.00 0.00 97 1026.0
20260507174835 22 56 1.6 4.8 0.00 0.00 0.00 97 1026.0
20260507174332 22 64 3.2 11.3 0.00 0.00 0.00 97 1026.0
20260507173829 23 81 1.6 4.8 0.00 0.00 0.00 94 1026.3
20260507173326 24 57 1.6 4.8 0.00 0.00 0.00 90 1026.3
20260507172822 25 101 0.0 4.8 0.00 0.00 0.00 87 1026.3
20260507172319 24 116 8.0 9.7 0.00 0.00 0.00 85 1026.3
20260507171815 24 136 6.4 9.7 0.00 0.00 0.00 86 1026.7
20260507171312 23 137 3.2 6.4 0.00 0.00 0.00 86 1026.7
20260507170809 23 133 6.4 6.4 0.00 0.00 0.00 87 1026.7
20260507170305 23 159 9.7 14.5 0.00 0.00 0.00 87 1026.7
20260507165801 25 127 4.8 6.4 0.00 0.00 0.00 82 1026.7
20260507165257 25 130 8.0 12.9 0.00 0.00 0.00 83 1026.7
20260507164753 24 150 8.0 11.3 0.00 0.00 0.00 83 1027.1
20260507164251 23 142 1.6 4.8 0.00 0.00 0.00 86 1027.1
20260507163748 23 154 1.6 11.3 0.00 0.00 0.00 86 1027.1
20260507163246 23 164 6.4 6.4 0.00 0.00 0.00 86 1027.1
20260507162741 23 124 3.2 9.7 0.00 0.00 0.00 86 1027.4
20260507162237 23 136 6.4 11.3 0.00 0.00 0.00 87 1027.4
20260507161734 23 95 0.0 1.6 0.00 0.00 0.00 86 1027.4
20260507161231 23 79 0.0 11.3 0.00 0.00 0.00 86 1027.4
20260507160726 23 100 4.8 6.4 0.00 0.00 0.00 84 1027.4
20260507160224 24 108 9.7 14.5 0.00 0.00 0.00 84 1027.9
20260507155720 24 115 3.2 11.3 0.00 0.00 0.00 84 1027.4
20260507155216 24 109 4.8 9.7 0.00 0.00 0.00 84 1027.4
20260507154713 23 128 0.0 12.9 0.00 0.00 0.00 85 1027.9
20260507154210 23 133 6.4 12.9 0.00 0.00 0.00 86 1027.9
20260507153707 23 135 8.0 14.5 0.00 0.00 0.00 84 1027.4
20260507153203 23 99 3.2 11.3 0.00 0.00 0.00 88 1027.9
20260507152659 23 131 6.4 12.9 0.00 0.00 0.00 84 1027.9
20260507152155 23 162 6.4 14.5 0.00 0.00 0.00 85 1027.9
20260507151652 22 127 3.2 4.8 0.00 0.00 0.00 88 1027.9
20260507151148 23 112 4.8 6.4 0.00 0.00 0.00 85 1027.9
20260507150646 23 148 1.6 9.7 0.00 0.00 0.00 87 1027.9
20260507150143 22 135 8.0 12.9 0.00 0.00 0.00 86 1027.9
20260507145638 23 122 8.0 11.3 0.00 0.00 0.00 88 1027.9
20260507145135 23 121 0.0 1.6 0.00 0.00 0.00 86 1027.9
20260507144631 23 119 6.4 14.5 0.00 0.00 0.00 88 1027.9
20260507144130 23 143 8.0 14.5 0.00 0.00 0.00 83 1027.9
20260507143626 23 128 9.7 16.1 0.00 0.00 0.00 86 1028.2
20260507143123 23 141 17.7 20.9 0.00 0.00 0.00 86 1027.9
20260507142618 22 102 3.2 12.9 0.00 0.00 0.00 89 1027.9
20260507142116 22 147 0.0 11.3 0.00 0.00 0.00 89 1027.9
20260507141612 22 140 14.5 16.1 0.00 0.00 0.00 89 1027.9
20260507141109 21 138 16.1 17.7 0.00 0.00 0.00 91 1027.9
20260507140606 21 130 16.1 22.5 0.00 0.00 0.00 91 1027.9
20260507140103 22 147 9.7 16.1 0.00 0.00 0.00 91 1027.9
20260507135600 22 132 9.7 16.1 0.00 0.00 0.00 90 1027.9
20260507135057 22 109 8.0 17.7 0.00 0.00 0.00 89 1027.9
20260507134554 22 162 11.3 17.7 0.00 0.00 0.00 90 1027.9
20260507134050 22 161 8.0 12.9 0.00 0.00 0.00 90 1027.9
20260507133546 22 164 14.5 24.1 0.00 0.00 0.00 88 1027.9
20260507133044 22 128 11.3 22.5 0.00 0.00 0.00 90 1027.4
20260507132540 22 105 9.7 20.9 0.00 0.00 0.00 90 1027.9
20260507132037 22 161 9.7 20.9 0.00 0.00 0.00 88 1027.4
20260507131534 22 131 9.7 25.7 0.00 0.00 0.00 90 1027.9
20260507131031 21 134 12.9 16.1 0.00 0.00 0.00 91 1027.4
20260507130528 21 151 9.7 16.1 0.00 0.00 0.00 90 1027.4
20260507130026 21 152 3.2 17.7 0.00 0.00 0.00 92 1027.9
20260507125524 21 150 9.7 24.1 0.00 0.00 0.00 91 1027.4
20260507125022 21 171 9.7 27.4 0.00 0.00 0.00 92 1027.1
20260507124518 21 149 17.7 20.9 0.00 0.00 0.00 90 1027.1
20260507124016 21 129 14.5 20.9 0.00 0.00 0.00 90 1027.4
20260507123514 21 156 11.3 24.1 0.00 0.00 0.00 91 1027.1
20260507123010 21 108 11.3 24.1 0.00 0.00 0.00 92 1027.1
20260507122504 21 138 19.3 30.6 0.00 0.00 0.00 90 1026.7
20260507122001 21 170 16.1 25.7 0.00 0.00 0.00 91 1026.7
20260507121456 21 144 12.9 20.9 0.00 0.00 0.00 92 1026.7
20260507120953 21 147 8.0 17.7 0.00 0.00 0.00 91 1026.3
20260507120449 20 110 14.5 25.7 0.00 0.00 0.00 92 1026.7
20260507115946 21 173 11.3 22.5 0.00 0.00 0.00 93 1026.7
20260507115442 20 164 12.9 25.7 0.00 0.00 0.00 92 1026.7
20260507114938 20 143 11.3 24.1 0.00 0.00 0.00 93 1026.3
20260507114435 20 176 11.3 20.9 0.00 0.00 0.00 94 1026.3
20260507113932 20 167 14.5 24.1 0.00 0.00 0.00 95 1026.3
20260507113429 20 173 14.5 22.5 0.00 0.00 0.00 96 1026.3
20260507112926 20 198 11.3 20.9 0.00 0.00 0.00 95 1026.3
20260507112424 20 145 14.5 25.7 0.00 0.00 0.00 95 1026.3
20260507111921 20 154 9.7 20.9 0.00 0.00 0.00 96 1026.3
20260507111418 20 177 4.8 17.7 0.00 0.00 0.00 96 1026.0
20260507110914 20 159 11.3 22.5 0.00 0.00 0.00 95 1026.3
20260507110410 20 180 9.7 24.1 0.00 0.00 0.00 96 1026.3
20260507105907 20 138 12.9 17.7 0.00 0.00 0.00 96 1026.3
20260507105404 19 168 9.7 22.5 0.00 0.00 0.00 97 1026.3
20260507104901 19 167 14.5 20.9 0.00 0.00 0.00 98 1026.3
20260507104357 19 172 4.8 20.9 0.00 0.00 0.00 98 1026.0
20260507103853 19 190 14.5 27.4 0.00 0.00 0.00 97 1026.0
20260507103350 19 163 8.0 14.5 0.00 0.00 0.00 98 1026.3
20260507102846 19 172 9.7 22.5 0.00 0.00 0.00 98 1026.0
20260507102343 19 135 12.9 24.1 0.00 0.00 0.00 98 1026.0
20260507101839 19 163 9.7 22.5 0.00 0.00 0.00 98 1026.0
20260507101334 18 155 17.7 24.1 0.00 0.00 0.00 98 1026.0
20260507100832 18 163 12.9 17.7 0.00 0.00 0.00 99 1026.0
20260507100329 18 193 11.3 17.7 0.00 0.00 0.00 99 1025.6
20260507095827 18 172 12.9 30.6 0.00 0.00 0.00 99 1025.6
20260507095323 18 158 17.7 25.7 0.00 0.00 0.00 99 1025.6
20260507094821 18 179 12.9 27.4 0.00 0.00 0.00 99 1025.2
20260507094317 18 187 16.1 22.5 0.00 0.00 0.00 99 1025.2
20260507093814 18 173 14.5 29.0 0.00 0.00 0.00 99 1025.2
20260507093313 18 179 12.9 27.4 0.00 0.00 0.00 99 1025.6
20260507092810 18 164 11.3 20.9 0.00 0.00 0.00 99 1025.2
20260507092307 18 159 8.0 22.5 0.00 0.00 0.00 99 1025.6
20260507091803 18 188 14.5 16.1 0.00 0.00 0.00 99 1025.6
20260507091300 18 142 11.3 16.1 0.00 0.00 0.00 99 1025.6
20260507090800 18 185 9.7 24.1 0.00 0.00 0.00 99 1026.0
20260507090257 18 144 4.8 20.9 0.00 0.00 0.00 99 1026.0
20260507085754 18 148 8.0 14.5 0.00 0.00 0.00 99 1025.6
20260507085250 18 176 4.8 25.7 0.00 0.00 0.00 99 1025.6
20260507084748 18 166 11.3 17.7 0.00 0.00 0.00 99 1026.0
20260507084244 18 161 11.3 14.5 0.00 0.00 0.00 99 1025.6
20260507083742 18 152 6.4 9.7 0.00 0.00 0.00 99 1026.0
20260507083238 18 147 4.8 16.1 0.00 0.00 0.00 99 1025.6
20260507082734 18 184 9.7 16.1 0.00 0.00 0.00 99 1026.0
20260507082230 18 150 14.5 22.5 0.00 0.00 0.00 99 1026.0
20260507081727 18 154 9.7 14.5 0.00 0.00 0.00 99 1026.0
20260507081223 18 143 11.3 22.5 0.00 0.00 0.00 99 1025.6
20260507080720 18 183 9.7 12.9 0.00 0.00 0.00 99 1026.0
20260507080216 18 144 9.7 22.5 0.00 0.00 0.00 99 1025.6
20260507075711 18 173 14.5 17.7 0.00 0.00 0.00 99 1025.6
20260507075208 18 169 6.4 17.7 0.00 0.00 0.00 99 1025.6
20260507074704 18 131 11.3 25.7 0.00 0.00 0.00 99 1025.6
20260507074203 18 217 4.8 16.1 0.00 0.00 0.00 99 1025.6
20260507073659 18 222 12.9 17.7 0.00 0.00 0.00 99 1025.6
20260507073155 18 175 12.9 22.5 0.00 0.00 0.00 99 1025.6
20260507072653 18 194 4.8 17.7 0.00 0.00 0.00 98 1026.0
20260507072150 18 195 6.4 16.1 0.00 0.00 0.00 98 1025.6
20260507071648 18 181 6.4 17.7 0.00 0.00 0.00 97 1026.0
20260507071144 18 162 6.4 14.5 0.00 0.00 0.00 97 1026.0
20260507070641 18 134 9.7 14.5 0.00 0.00 0.00 97 1026.0
20260507070138 18 194 9.7 16.1 0.00 0.00 0.00 97 1026.0
20260507065634 18 186 9.7 20.9 0.00 0.00 0.00 97 1026.0
20260507065131 18 136 1.6 12.9 0.00 0.00 0.00 97 1026.0
20260507064629 18 190 16.1 20.9 0.00 0.00 0.00 97 1026.3
20260507064127 18 161 9.7 12.9 0.00 0.00 0.00 98 1026.3
20260507063625 18 180 11.3 14.5 0.00 0.00 0.00 98 1026.3
20260507063121 18 132 8.0 14.5 0.00 0.00 0.00 97 1026.3
20260507062618 18 215 4.8 9.7 0.00 0.00 0.00 96 1026.3
20260507062116 18 182 12.9 16.1 0.00 0.00 0.00 96 1026.7
20260507061613 18 178 4.8 14.5 0.00 0.00 0.00 96 1026.7
20260507061111 18 176 8.0 14.5 0.00 0.00 0.00 95 1026.7
20260507060609 18 177 9.7 17.7 0.00 0.00 0.00 94 1026.7
20260507060105 19 185 9.7 12.9 0.00 0.00 0.00 94 1026.7
20260507055601 19 157 8.0 14.5 0.00 0.00 0.00 94 1026.7
20260507055057 19 164 9.7 14.5 0.00 0.00 0.00 93 1026.7
20260507054553 19 153 8.0 14.5 0.00 0.00 0.00 92 1027.1
20260507054050 19 201 8.0 12.9 0.00 0.00 0.00 92 1027.1
20260507053548 19 139 4.8 12.9 0.00 0.00 0.00 91 1027.1
20260507053047 20 200 8.0 11.3 0.00 0.00 0.00 90 1027.4
20260507052544 20 145 9.7 14.5 0.00 0.00 0.00 89 1027.1
20260507052040 20 173 6.4 12.9 0.00 0.00 0.00 89 1027.4
20260507051538 20 169 4.8 12.9 0.00 0.00 0.00 89 1027.4
20260507051035 20 155 8.0 12.9 0.00 0.00 0.00 90 1027.4
20260507050531 20 166 4.8 12.9 0.00 0.00 0.00 90 1027.4
20260507050028 20 169 9.7 12.9 0.00 0.00 0.00 89 1027.4
20260507045524 20 158 8.0 11.3 0.00 0.00 0.00 90 1027.9
20260507045022 20 167 4.8 12.9 0.00 0.00 0.00 90 1027.9
20260507044518 20 190 9.7 11.3 0.00 0.00 0.00 89 1027.9
20260507044015 20 175 6.4 11.3 0.00 0.00 0.00 90 1027.9
20260507043511 20 159 6.4 9.7 0.00 0.00 0.00 90 1027.9
20260507043009 20 159 8.0 9.7 0.00 0.00 0.00 91 1028.2
20260507042504 20 147 6.4 9.7 0.00 0.00 0.00 91 1027.9
20260507042000 20 170 4.8 9.7 0.00 0.00 0.00 91 1028.2
20260507041457 20 154 9.7 11.3 0.00 0.00 0.00 92 1028.2
20260507040954 20 154 9.7 9.7 0.00 0.00 0.00 93 1028.2
20260507040450 20 166 6.4 9.7 0.00 0.00 0.00 93 1028.2
20260507035946 20 155 9.7 11.3 0.00 0.00 0.00 93 1028.5
20260507035443 20 164 6.4 11.3 0.00 0.00 0.00 93 1028.5
20260507034939 20 133 9.7 14.5 0.00 0.00 0.00 94 1028.5
20260507034436 20 164 9.7 17.7 0.00 0.00 0.00 94 1028.2
20260507033935 20 160 6.4 12.9 0.00 0.00 0.00 93 1028.5
20260507033432 19 165 6.4 11.3 0.00 0.00 0.00 93 1028.5
20260507032929 19 188 9.7 14.5 0.00 0.00 0.00 94 1028.5
20260507032426 20 188 12.9 16.1 0.00 0.00 0.00 94 1028.5
20260507031921 20 207 8.0 12.9 0.00 0.00 0.00 93 1028.5
20260507031418 20 194 6.4 9.7 0.00 0.00 0.00 91 1028.5
20260507030915 19 181 6.4 9.7 0.00 0.00 0.00 93 1028.5
20260507030413 19 176 6.4 6.4 0.00 0.00 0.00 97 1028.5
20260507025909 19 186 6.4 11.3 0.00 0.00 0.00 97 1028.5
20260507025407 19 182 6.4 11.3 0.00 0.00 0.00 98 1028.5
20260507024905 19 183 9.7 12.9 0.00 0.00 0.00 97 1028.5
20260507024402 19 200 8.0 12.9 0.00 0.00 0.00 97 1028.5
20260507023857 19 169 6.4 12.9 0.00 0.00 0.00 96 1028.5
20260507023354 20 195 6.4 12.9 0.00 0.00 0.00 94 1028.5
20260507022852 20 187 8.0 9.7 0.00 0.00 0.00 92 1028.5
20260507022348 20 186 9.7 9.7 0.00 0.00 0.00 89 1028.5
20260507021844 20 239 8.0 9.7 0.00 0.00 0.00 88 1028.5
20260507021339 21 235 8.0 9.7 0.00 0.00 0.00 87 1028.2
20260507020837 21 218 4.8 6.4 0.00 0.00 0.00 85 1028.2
20260507020334 21 222 6.4 9.7 0.00 0.00 0.00 86 1028.2
20260507015831 20 200 6.4 11.3 0.00 0.00 0.00 88 1028.2
20260507015329 20 211 9.7 12.9 0.00 0.00 0.00 90 1027.9
20260507014826 20 204 9.7 12.9 0.00 0.00 0.00 91 1028.2
20260507014322 20 191 9.7 11.3 0.00 0.00 0.00 93 1028.2
20260507013818 20 204 9.7 11.3 0.00 0.00 0.00 93 1028.2
20260507013315 19 213 9.7 12.9 0.00 0.00 0.00 96 1027.9
20260507012808 19 197 9.7 12.9 0.00 0.00 0.00 98 1028.2
20260507012306 19 201 9.7 11.3 0.00 0.00 0.00 98 1027.9
20260507011801 19 207 9.7 12.9 0.00 0.00 0.00 98 1027.9
20260507011257 19 195 9.7 11.3 0.00 0.00 0.00 99 1028.2
20260507010756 19 211 8.0 12.9 0.00 0.00 0.00 99 1027.9
20260507010253 19 196 12.9 14.5 0.00 0.00 0.00 99 1027.9
20260507005750 19 183 9.7 12.9 0.00 0.00 0.00 99 1027.9
20260507005246 19 174 8.0 12.9 0.00 0.00 0.00 99 1027.9
20260507004743 19 218 12.9 14.5 0.00 0.00 0.00 99 1027.9
20260507004241 20 200 9.7 12.9 0.00 0.00 0.00 99 1027.9
20260507003737 20 211 12.9 14.5 0.00 0.00 0.00 97 1027.9
20260507003232 20 209 9.7 11.3 0.00 0.00 0.00 96 1027.9
20260507002729 20 224 6.4 6.4 0.00 0.00 0.00 96 1027.9
20260507002225 20 213 6.4 9.7 0.00 0.00 0.00 96 1027.9
20260507001721 20 209 4.8 4.8 0.00 0.00 0.00 95 1027.9
20260507001219 20 186 6.4 9.7 0.00 0.00 0.00 95 1027.4
20260507000715 20 186 8.0 9.7 0.00 0.00 0.00 96 1027.4
20260507000212 20 192 9.7 11.3 0.00 0.00 0.00 96 1027.4
20260506235708 20 194 8.0 11.3 0.00 0.00 0.00 95 1027.4
20260506235203 20 207 6.4 9.7 0.00 0.00 0.00 95 1027.4
20260506234700 20 201 8.0 12.9 0.00 0.00 0.00 94 1027.1
20260506234157 20 179 4.8 9.7 0.00 0.00 0.00 94 1027.1
20260506233655 20 176 3.2 9.7 0.00 0.00 0.00 94 1027.1
20260506233152 20 193 8.0 11.3 0.00 0.00 0.00 93 1027.1
20260506232648 20 202 9.7 12.9 0.00 0.00 0.00 93 1027.1
20260506232143 20 205 9.7 12.9 0.00 0.00 0.00 94 1026.7
20260506231641 20 155 6.4 17.7 0.00 0.00 0.00 94 1026.7
20260506231139 20 206 9.7 16.1 0.00 0.00 0.00 94 1026.7
20260506230636 20 160 9.7 12.9 0.00 0.00 0.00 94 1026.7
20260506230132 20 213 11.3 16.1 0.00 0.00 0.00 94 1026.7
20260506225629 20 198 11.3 16.1 0.00 0.00 0.00 94 1026.7
20260506225126 20 201 12.9 16.1 0.00 0.00 0.00 94 1026.7
20260506224622 20 177 11.3 17.7 0.00 0.00 0.00 95 1026.7
20260506224119 20 167 8.0 17.7 0.00 0.00 0.00 94 1026.7
20260506223615 20 219 14.5 17.7 0.00 0.00 0.00 94 1026.7
20260506223111 20 167 6.4 22.5 0.00 0.00 0.00 94 1026.3
20260506222608 21 196 9.7 17.7 0.00 0.00 0.00 93 1026.3
20260506222104 21 172 8.0 16.1 0.00 0.00 0.00 93 1026.3
20260506221603 21 231 14.5 22.5 0.00 0.00 0.00 93 1026.7
20260506221100 21 215 9.7 22.5 0.00 0.00 0.00 93 1026.3
20260506220556 21 198 12.9 17.7 0.00 0.00 0.00 92 1026.3
20260506220051 21 197 9.7 17.7 0.00 0.00 0.00 91 1026.0
20260506215549 21 210 12.9 20.9 0.00 0.00 0.00 90 1026.3
20260506215044 21 209 8.0 17.7 0.00 0.00 0.00 90 1026.3
20260506214541 22 176 11.3 20.9 0.00 0.00 0.00 89 1026.0
20260506214039 22 160 6.4 14.5 0.00 0.00 0.00 89 1026.3
20260506213537 22 193 12.9 17.7 0.00 0.00 0.00 89 1026.3
20260506213034 22 206 8.0 17.7 0.00 0.00 0.00 88 1026.3
20260506212530 22 153 9.7 16.1 0.00 0.00 0.00 87 1026.3
20260506212025 22 192 9.7 17.7 0.00 0.00 0.00 88 1026.0
20260506211521 22 165 12.9 20.9 0.00 0.00 0.00 87 1026.0
20260506211018 22 219 8.0 14.5 0.00 0.00 0.00 86 1026.0
20260506210514 22 160 17.7 22.5 0.00 0.00 0.00 86 1026.0
20260506210006 22 171 12.9 16.1 0.00 0.00 0.00 85 1026.0